Location: Jalan Sepang
(2.8072°N, 101.8021°E)
Time: 05:03:21
(UTC+00:00)

Ariane H10 - Pass Details

Date: 15 May 2026
Orbit: 434 x 34346 km, 3.7° (Epoch: 7 June)

Event Time Altitude Azimuth Distance (km) Brightness Sun altitude
Rises 13:04:59 0° 266° (W) 2,484 6.6 -26.2°
Reaches altitude 10° 13:06:22 10° 265° (W) 1,794 5.7 -26.5°
Maximum altitude 13:09:41 86° 179° (S) 881 3.1 -27.3°
Enters shadow 13:10:12 74° 99° (E) 983 3.2 -27.4°
